Location: Bu�n Treun
(12.1333°N, 108.3167°E)
Time: 00:22:32
(UTC+00:00)

GPS 2-12 Rocket1 - Pass Details

Date: 13 July 2020
Orbit: 586 x 652 km, 20.0° (Epoch: 02 August)

Event Time Altitude Azimuth Distance (km) Brightness Sun altitude
Rises 12:46:00 0° 265° (W) 2,921 7.4 -20.7°
Reaches altitude 10° 12:48:24 10° 270° (W) 2,021 6.5 -21.2°
Maximum altitude 12:53:03 53° 347° (NNW) 789 3.7 -22.2°
Enters shadow 12:55:00 32° 47° (NE) 1,112 4.2 -22.6°
